www.pogodaiklimat.ru

Погода и климат >> Архив погоды >> Дания >> Kegnaes


ПОГОДА в Kegnaes

  • Прогноз погоды в Kegnaes
  • Монитор погоды в Kegnaes
  • Климат города

АРХИВ ПОГОДЫ в Kegnaes

Время (UTC), дата Ветер
(напр.,м/с)
 
Видим.   Явления Облачность Т
(С)
Тd
(С)
f
(%)
Тe
(С)
Тes
(С)
Комфортность P
(гПа)
Po
(гПа)
Тmin
(С)
Tmax
(С)
R
(мм)
R24
(мм)
S
(см)
07 18.04 СВ 10 35 км ясно +3.4 -2.3 66 -3 -3 1027.1 1024.7
08 18.04 СВ 9 40 км ясно +3.9 -2.2 64 -2 -2 1028.2 1025.8
09 18.04 СВ 9 45 км 1/1 900 м
[]
+4.4 -4.1 54 -1 -0 1029.0 1026.7
10 18.04 СВ 8 35 км 1/1 1230 м
[]
+4.3 -3.8 56 -1 0 1029.8 1027.4
11 18.04 СВ 8 30 км ясно +4.8 -4.0 53 -0 +2 1030.3 1028.0
12 18.04 СВ 7 35 км ясно +4.9 -4.3 51 0 +4 1030.7 1028.3
13 18.04 СВ 7 40 км ясно +4.7 -4.7 51 -0 +3 1031.1 1028.7
14 18.04 СВ 6 45 км ясно +4.9 -3.6 54 0 +3 1031.4 1029.0
15 18.04 В 7
{12}
45 км в посл. час дождь {ливн. осадки} 1/1 1500 м
[]
+4.2 -2.9 60 -1 0 1031.6 1029.2 0.0
16 18.04 В 7 40 км ясно +3.3 -1.2 72 -3 -2 1032.2 1029.8
17 18.04 В 6 45 км 1/1 900 м
[]
+3.8 -1.4 69 -2 -1 1032.5 1030.1
18 18.04 СВ 7
{12}
50 км {ливн. осадки, дождь} ясно +3.4 -4.7 55 -2 -2 1033.0 1030.6 +3.1 +5.5
19 18.04 СВ 5 50 км ясно +2.7 -4.4 59 -2 -2 1033.6 1031.2
20 18.04 С 4 50 км ясно +2.3 -4.0 63 -2 -2 1034.1 1031.7
21 18.04 С 4 50 км 1/1 1170 м
[]
+1.9 -3.5 67 -2 -2 1034.2 1031.9
22 18.04 С 3 50 км ясно +1.6 -3.5 69 -2 -2 1034.4 1032.0
23 18.04 С 3 50 км ясно +2.0 -3.5 67 -2 -2 1034.9 1032.5
00 19.04 С 3 18 км ясно +1.6 -2.8 73 -2 -2 1035.0 1032.6
01 19.04 С 3 19 км ясно +1.3 -3.1 72 -2 -2 1035.1 1032.7
02 19.04 С 3 17 км ясно +1.4 -2.9 73 -2 -2 1035.2 1032.8
03 19.04 С 4 17 км {дымка} ясно +1.1 -1.7 82 -4 -4 1035.4 1033.0
04 19.04 С 4 19 км ясно +1.2 -0.9 86 -4 -4 1035.5 1033.1
05 19.04 С 3 17 км ясно +1.6 -0.5 86 -3 -3 1035.9 1033.5
06 19.04 С 4 19 км ясно +3.0 -0.4 78 -1 -0 1036.1 1033.8 +0.4 +3.6
07 19.04 С 2 18 км ясно +4.4 +0.6 76 +2 +6 1036.7 1034.3
08 19.04 С 5 45 км ясно +5.5 -3.6 52 +2 +5 1037.0 1034.7
09 19.04 СВ 4 30 км 1/1 1260 м
[]
+5.5 -3.6 52 +2 +7 1037.4 1035.0
10 19.04 СВ 3 30 км 4/4 960 м
[]
+4.8 -2.1 61 +2 +8 1037.7 1035.3
11 19.04 С 2 22 км ясно +5.6 -3.2 53 +4 +16 опасность
простуды
1037.6 1035.3
12 19.04 С 2 14 км 4/4 1000 м
[]
+5.7 -1.8 58 +4 +11 1037.6 1035.2
13 19.04 В 3 27 км 4/4 1300 м
[]
+5.9 -3.1 52 +4 +9 1037.3 1034.9
14 19.04 В 2 15 км 4/4 1500 м
[]
+6.7 -3.3 49 +5 +10 1036.9 1034.6
15 19.04 Ю 2 12 км 1/1 1500 м
[]
+8.4 -1.8 49 +7 +12 1036.8 1034.4
16 19.04 Ю 3 12 км ясно +7.0 -1.3 55 +4 +7 1036.6 1034.3
17 19.04 Ю 3 11 км ясно +6.2 -1.7 57 +4 +5 1036.4 1034.0
18 19.04 ЮЗ 2 12 км ясно +5.4 -2.3 58 +3 +3 1036.4 1034.0 +3.0 +8.7
19 19.04 ЮЗ 3 13 км ясно +5.1 -2.7 57 +2 +2 1036.6 1034.2
20 19.04 Ю 6 16 км ясно +4.8 +0.2 72 -0 -0 1036.7 1034.3
21 19.04 ЮЗ 5 12 км 6/6 1500 м
[]
+4.5 -0.1 72 0 0 1036.6 1034.3
22 19.04 СЗ 4 12 км 9/9 1470 м
[]
+4.9 -0.1 70 +1 +1 1036.6 1034.3
23 19.04 СЗ 3 12 км 9/9 1380 м
[]
+4.6 +0.2 73 +2 +2 1036.5 1034.1
00 20.04 СЗ 3 12 км 6/6 1300 м
[]
+4.4 0.0 73 +1 +1 1036.6 1034.2
01 20.04 СЗ 3 12 км 9/9 1170 м
[]
+4.1 +0.3 76 +1 +1 1036.3 1033.9
02 20.04 СЗ 3 11 км 9/9 1170 м
[]
+3.4 -0.3 77 0 0 1036.2 1033.8
03 20.04 СЗ 3 12 км 1/1 1500 м
[]
+2.8 -1.6 73 -1 -1 1036.0 1033.7
04 20.04 З 3 11 км ясно +2.8 -0.5 79 -1 -1 1035.8 1033.4
05 20.04 З 3 10 км ясно +3.7 +0.3 78 0 +1 1035.6 1033.2
06 20.04 ЮЗ 4 11 км ясно +4.3 +0.3 75 0 +1 1035.4 1033.0 +2.7 +5.4
07 20.04 ЮЗ 6 11 км ясно +5.3 -0.1 68 +1 +2 1035.2 1032.9
08 20.04 З 6 13 км ясно +7.0 +0.6 64 +3 +6 1035.1 1032.7
09 20.04 З 8 11 км 1/1 1140 м
[]
+7.0 +0.3 62 +2 +4 1034.6 1032.2
10 20.04 З 7 12 км ясно +7.5 +0.4 61 +3 +6 1034.4 1032.0
11 20.04 З 8 17 км ясно +7.0 +0.4 63 +2 +5 1034.0 1031.7
12 20.04 ЮЗ 9 12 км ясно +7.3 +1.2 65 +2 +3 1033.3 1030.9
13 20.04 З 8 12 км ясно +8.7 +2.3 64 +5 +7 1032.8 1030.4
14 20.04 З 9 12 км 4/4 1300 м
[]
+7.6 +2.2 69 +3 +3 1031.9 1029.6
15 20.04 З 8 12 км ясно +8.3 +3.1 70 +4 +5 1031.5 1029.2
16 20.04 З 8 11 км 1/1 1200 м
[]
+7.4 +3.0 74 +3 +3 1030.8 1028.5
17 20.04 З 9 10 км ясно +7.5 +3.3 75 +3 +3 1030.3 1027.9
18 20.04 З 9 10 км {дымка} 1/1 1260 м
[]
+7.3 +4.1 80 +2 +2 1029.8 1027.4 +4.3 +10.0
19 20.04 З 9 10 км ясно +7.1 +4.4 83 +2 +2 1029.4 1027.1
20 20.04 ЮЗ 10 10 км ясно +6.9 +4.6 85 +1 +1 1028.6 1026.3
21 20.04 З 9 11 км 4/4 400 м
[]
+6.9 +5.3 90 +1 +1 1028.0 1025.6
22 20.04 З 8 6000 м дымка 9/9 300 м
[]
+7.2 +5.7 90 +2 +2 1027.5 1025.2
23 20.04 З 9 6000 м дымка 9/9 240 м
[]
+7.3 +6.0 91 +2 +2 1026.9 1024.6
00 21.04 З 9 3700 м дымка 9/9 150 м
[]
+7.4 +6.4 93 +2 +2 1026.4 1024.0
01 21.04 З 9 3500 м дымка 9/9 120 м
[]
+7.3 +6.5 95 +2 +2 1025.7 1023.3
02 21.04 З 7 3200 м дымка 9/9 120 м
[]
+7.2 +6.6 96 +2 +2 1025.3 1023.0
03 21.04 З 6 3600 м слаб. ливневой дождь {морось} 9/9 150 м
[]
+7.1 +6.6 97 +2 +2 1024.6 1022.3
04 21.04 З 7 2600 м в посл. час дождь {ливн. осадки} 9/9 120 м
[]
+7.2 +6.7 97 +2 +2 1024.1 1021.8 0.2
05 21.04 З 7 4300 м дымка 9/9 150 м
[]
+7.2 +6.7 97 +2 +2 1023.7 1021.4
06 21.04 З 8 4700 м в посл. час морось {ливн. осадки} 4/4 210 м
[]
+7.4 +6.9 97 +2 +2 1023.3 1020.9 +6.6 +7.5 0.2
07 21.04 З 9 5000 м дымка 9/9 240 м
[]
+7.8 +6.9 94 +3 +3 1022.8 1020.5
08 21.04 З 8 7000 м дымка 9/9 270 м
[]
+8.5 +7.2 92 +4 +4 1022.4 1020.1
09 21.04 З 7 7000 м дымка 9/9 300 м
[]
+8.6 +7.0 90 +4 +4 1022.1 1019.8
10 21.04 З 8 8000 м дымка 9/9 360 м
[]
+9.4 +7.4 87 +5 +5 1021.4 1019.1
11 21.04 З 9 9000 м дымка ясно +10.2 +7.5 83 +6 +7 1020.6 1018.3
12 21.04 З 8 6000 м дымка 9/9 210 м
[]
+9.2 +7.8 91 +5 +5 1020.1 1017.8
13 21.04 З 8 6000 м слаб. ливневой дождь 9/9 180 м
[]
+8.6 +7.8 95 +4 +4 1019.2 1016.9 0.2
14 21.04 З 10 9000 м в посл. час морось {ливн. осадки} 5/5 120 м
[]
+8.7 +7.6 93 +3 +4 1018.5 1016.2
15 21.04 З 11 11 км {ливн. осадки, дождь} ясно +9.1 +7.0 87 +4 +4 1017.4 1015.1 0.2
16 21.04 З 11 9000 м слаб. морось {дождь} 5/5 210 м
[]
+8.9 +7.0 88 +4 +4 1016.7 1014.4
17 21.04 З 9
{14}
5000 м слаб. дождь {морось} 9/9 240 м
[]
+8.2 +7.2 93 +3 +3 1016.3 1014.0
18 21.04 З 8 22 км слаб. морось {ливн. осадки, дождь} 6/6 300 м
[]
+7.5 +5.5 87 +2 +2 1016.5 1014.2 +7.4 +10.3 0.3
19 21.04 СЗ 8 17 км {морось} ясно +6.6 +3.7 82 +1 +1 1017.0 1014.6
20 21.04 З 8 14 км ясно +6.1 +3.0 80 +1 +1 1017.3 1015.0
21 21.04 З 8 14 км {морось} ясно +5.8 +2.3 78 0 0 1017.7 1015.3
22 21.04 СЗ 9 14 км в посл. час морось {ливн. осадки} ясно +5.0 +0.9 75 -1 -1 1017.9 1015.5
23 21.04 З 7 15 км ясно +4.7 +0.4 74 -1 -1 1018.1 1015.7
00 22.04 З 6
{16}
14 км {ливн. осадки, морось} ясно +4.4 +0.7 77 -1 -1 1017.8 1015.5 0.0
01 22.04 З 8 16 км ясно +4.0 -0.1 75 -2 -2 1017.6 1015.2
02 22.04 З 7 12 км ясно +3.8 0.0 76 -2 -2 1016.9 1014.6
03 22.04 З 6
{14}
12 км 1/1 1500 м
[]
+3.7 +0.4 79 -2 -2 1016.9 1014.5
04 22.04 З 7 13 км ясно +3.6 -0.2 76 -2 -2 1016.5 1014.1
05 22.04 З 6 12 км 1/1 1500 м
[]
+4.0 -0.3 74 -1 -1 1016.8 1014.4
06 22.04 З 7-12
{14}
13 км ясно +5.1 +0.4 72 0 +1 1017.0 1014.6 +3.5 +7.5
07 22.04 СЗ 9 14 км 4/4 720 м
[]
+5.9 +0.8 70 0 +1 1017.0 1014.7
08 22.04 СЗ 10 19 км ясно +7.0 +0.1 61 +2 +2 1016.8 1014.4
09 22.04 З 8 16 км 4/4 800 м
[]
+7.1 +1.9 69 +2 +4 1016.6 1014.3
10 22.04 З 8 14 км 5/5 750 м
[]
+7.5 +3.0 73 +3 +4 1016.5 1014.2
11 22.04 СЗ 7 15 км ясно +8.9 +2.3 63 +5 +9 1016.4 1014.1
12 22.04 СЗ 9
{17}
18 км слаб. ливневой дождь 1/1 700 м
[]
+8.5 +3.0 68 +4 +5 1016.3 1014.0 0.0
13 22.04 СЗ 10 21 км {ливн. осадки} 4/4 840 м
[]
+9.6 +2.7 62 +5 +5 1016.0 1013.7
14 22.04 СЗ 9 18 км слаб. ливневой дождь ясно +8.9 +3.6 69 +4 +5 1016.0 1013.7
15 22.04 З 8 13 км {ливн. осадки, дождь} ясно +9.5 +2.5 62 +6 +7 1015.7 1013.4
16 22.04 СЗ 10 12 км ясно +8.7 +0.7 57 +4 +4 1015.8 1013.6
17 22.04 СЗ 8-13
{14}
12 км ясно +7.8 +0.8 61 +3 +3 1016.1 1013.8
18 22.04 СЗ 9
{19}
12 км {ливн. осадки, дождь} ясно +7.0 +0.1 61 +2 +2 1016.3 1014.0 +5.0 +9.9
19 22.04 СЗ 7 11 км ясно +6.1 +0.8 69 +1 +1 1016.7 1014.3
20 22.04 СЗ 6 11 км ясно +5.5 +1.0 73 +1 +1 1017.0 1014.7
21 22.04 З 6 11 км ясно +5.2 +1.6 78 0 0 1017.2 1014.8
22 22.04 СЗ 6 13 км ясно +4.6 +1.6 81 -1 -1 1017.1 1014.8
23 22.04 СЗ 6 10 км ясно +4.3 +1.4 81 -1 -1 1017.2 1014.9
00 23.04 СЗ 6
{12}
14 км ясно +4.0 +1.4 83 -2 -2 1017.2 1014.8
01 23.04 З 5 14 км ясно +3.7 +1.5 86 -1 -1 1017.0 1014.6
02 23.04 З 6 14 км ясно +3.8 +1.3 84 -2 -2 1016.9 1014.6
03 23.04 З 6 14 км ясно +3.6 +0.9 82 -2 -2 1017.0 1014.7
04 23.04 З 6 14 км ясно +3.5 +0.8 82 -2 -2 1017.1 1014.8
05 23.04 СЗ 5 13 км ясно +3.5 +0.7 82 -1 -1 1017.4 1015.0
06 23.04 СЗ 6 14 км 1/1 720 м
[]
+4.9 +1.2 77 0 +1 1017.5 1015.2 +3.2 +7.1
07 23.04 З 6 15 км ясно +5.0 +0.3 72 0 +2 1017.8 1015.5
08 23.04 З 8 15 км осадки 5/5 360 м
[]
+4.4 +0.6 76 -1 -1 1018.0 1015.7
09 23.04 СЗ 7 15 км {ливн. осадки, осадки} ясно +7.6 -1.1 54 +4 +7 1018.1 1015.8
10 23.04 СЗ 7 15 км в посл. час морось {ливн. осадки, дождь} ясно +7.9 -1.1 53 +4 +7 1018.0 1015.7
11 23.04 СЗ 7 16 км {ливн. осадки, дождь} ясно +6.8 -0.2 61 +2 +6 1018.1 1015.8
12 23.04 СЗ 8-14
{14}
19 км в посл. час дождь {ливн. осадки} 1/1 1080 м
[]
+8.0 -2.3 48 +4 +6 1018.1 1015.7 0.0
13 23.04 СЗ 6 20 км ясно +9.5 -0.3 50 +6 +11 1017.8 1015.5
14 23.04 СЗ 7 18 км 4/4 1260 м
[]
+8.4 -1.0 52 +5 +6 1018.0 1015.7
15 23.04 СЗ 8 20 км ясно +7.6 -1.5 52 +3 +5 1018.3 1016.0
16 23.04 З 8 20 км ясно +7.2 +0.8 64 +2 +3 1018.4 1016.1
17 23.04 З 7 15 км 4/4 900 м
[]
+6.7 +0.3 64 +2 +2 1018.4 1016.1
18 23.04 З 6-12
{15}
17 км 1/1 900 м
[]
+6.0 0.0 65 +2 +2 1018.7 1016.4 +4.1 +9.5
19 23.04 З 6 16 км ясно +5.2 +0.2 70 0 0 1018.9 1016.6
20 23.04 З 5 14 км ясно +4.7 +0.5 74 0 0 1019.1 1016.8
21 23.04 З 5 13 км ясно +4.7 +1.3 79 0 0 1018.8 1016.4
22 23.04 З 6 13 км 4/4 960 м
[]
+5.0 +2.6 84 -0 -0 1018.1 1015.8
23 23.04 З 8 5000 м дымка ясно +5.0 +2.9 86 -1 -1 1017.5 1015.2
00 24.04 З 9
{12}
13 км {дымка} 4/4 840 м
[]
+5.4 +3.4 87 -1 -1 1016.7 1014.4
01 24.04 ЮЗ 8 12 км в посл. час дождь {ливн. осадки, осадки} ясно +5.5 +3.4 86 -0 -0 1015.6 1013.3
02 24.04 ЮЗ 10 13 км в посл. час дождь {ливн. осадки} 4/4 300 м
[]
+5.9 +2.8 80 -0 -0 1014.4 1012.0
03 24.04 ЮЗ 8 12 км {ливн. осадки, осадки} 4/4 600 м
[]
+5.9 +3.4 84 0 0 1013.1 1010.8
04 24.04 ЮЗ 10 13 км ясно +5.8 +4.0 88 -1 -1 1011.7 1009.3
05 24.04 ЮЗ 13 15 км ясно +5.9 +3.3 83 -1 -1 1010.3 1008.0
06 24.04 ЮЗ 14 15 км {ливн. осадки, осадки} 4/4 720 м
[]
+6.1 +3.3 82 -1 -1 1009.3 1007.0 +4.5 +6.1
07 24.04 ЮЗ 14 13 км 10/10 500 м
[]
+6.6 +3.9 83 -0 -0 1008.1 1005.8
08 24.04 ЮЗ 14 11 км 9/9 500 м
[]
+7.2 +4.5 83 +1 +1 1006.9 1004.6
09 24.04 ЮЗ 15 9000 м дымка 5/5 500 м
[]
+8.1 +5.1 81 +2 +2 1006.2 1003.9
10 24.04 З 14 10 км 9/9 600 м
[]
+8.2 +5.1 81 +2 +2 1005.7 1003.4
11 24.04 З 14 9000 м слаб. ливневой дождь 6/6 210 м
[]
+8.1 +5.5 84 +2 +2 1005.2 1002.9
12 24.04 З 12 8000 м слаб. ливневой дождь 6/6 150 м
[]
+7.9 +6.4 90 +2 +2 1005.1 1002.8 0.8
13 24.04 З 13 16 км в посл. час снег {ливн. осадки} ясно +8.3 +4.0 74 +3 +3 1005.2 1002.9 1
14 24.04 З 8 14 км в посл. час морось {ливн. осадки} 4/4 330 м
[]
+8.0 +3.2 72 +3 +4 1005.6 1003.3
15 24.04 З 8 17 км {ливн. осадки} ясно +7.8 +0.2 59 +3 +4 1006.0 1003.7 1
16 24.04 З 7 15 км ясно +7.7 -1.8 51 +4 +5 1006.2 1003.9
17 24.04 З 7 14 км ясно +7.1 -1.5 54 +3 +3 1006.2 1003.9
18 24.04 СЗ 6
{16}
13 км {ливн. осадки} ясно +5.6 -2.4 56 +1 +1 1006.4 1004.1 +5.6 +8.6
19 24.04 СЗ 5 13 км ясно +4.8 -3.0 57 +1 +1 1006.4 1004.1
20 24.04 СЗ 4 13 км ясно +3.9 -2.8 62 0 0 1006.2 1003.9
21 24.04 З 4 12 км ясно +3.4 -3.0 63 -1 -1 1005.8 1003.5
22 24.04 З 3 13 км ясно +3.4 -2.6 65 -0 -0 1005.6 1003.3
23 24.04 З 3 12 км ясно +3.1 -1.6 71 -1 -1 1004.9 1002.5
00 25.04 З 3 12 км ясно +2.9 -1.5 73 -1 -1 1004.3 1002.0
01 25.04 З 3 12 км ясно +2.5 -1.2 77 -2 -2 1003.7 1001.4
02 25.04 З 3 11 км ясно +2.6 -1.0 77 -1 -1 1002.9 1000.5
03 25.04 ЮЗ 5 12 км {дымка} ясно +2.9 -0.3 79 -2 -2 1002.5 1000.2
04 25.04 З 3 12 км 1/1 1140 м
[]
+2.6 -0.9 78 -1 -1 1001.9 999.6
05 25.04 З 2 12 км ясно +3.9 -0.3 74 +2 +2 1001.7 999.4

 

Местоположение метеостанции Kegnaes (Дания): широта 54.85 долгота 9.98 высота над уровнем моря 17 м.

В архиве по умолчанию представлена погода в Kegnaes за последнюю неделю. Архивные данные за месяц целиком и за предыдущие месяцы, начиная с января 2011 года, Вы можете получить, выбрав интересующий диапазон дат из раскрывающегося списка и нажав кнопку "Ввод!".

Внимание! Время в таблицах - всемирное. Для получения местного времени необходимо прибавить поправку, которая в Kegnaes равна 1 ч.

Смотрите также архив погоды в соседних городах и на ближайших метеорологических станциях:

Погода в Olpenitz (Германия) (20 км)
Погода в Gluecksburg (Германия) (31 км)
Погода в Taasinge (Дания) (42 км)
Погода в Leuchtturm Kiel (Германия) (43 км)
Погода в Toroe (Дания) (45 км)
Погода в Schleswig (Германия) (45 км)
Погода в Schleswig Airport (Германия) (52 км)
Погода в Kiel-Holtenau (Германия) (53 км)
Погода в Aarslev (Дания) (59 км)
Погода в Skrydstrup (Дания) (62 км)

Пояснения к столбцам:

Ветер - указаны скорость ветра в м/с - средняя за 10 мин, порывы в срок и между сроками (в фигурных скобках) и направление, откуда дует ветер: С - северный, СВ - северо-восточный, В - восточный, ЮВ - юго-восточный, Ю - южный, ЮЗ - юго-западный, З - западный, СЗ - северо-западный.
Видимость - горизонтальная дальность видимости в метрах или километрах. При видимости от 1 до 10 км при отсутствии осадков обычно наблюдается дымка, при ухудшении видимости до 1 км и менее - туман. В сухую погоду видимость может ухудшаться дымом, пылью или мглою.
Явления - указаны атмосферные явления, наблюдавшиеся в срок или в последний час перед сроком; фигурными скобками обозначены явления, наблюдавшиеся между сроками (за 1-3 часа до срока); квадратными скобками обозначены град или гололедные отложения с указанием их диаметра в мм.
Облачность - указаны через наклонную черту общая и нижняя облачность в баллах и высота нижней границы облаков в метрах; квадратными скобками обозначены формы облаков: Ci - перистые, Cs - перисто-слоистые, Cc - перисто-кучевые, Ac - высококучевые, As - высокослоистые, Sc - слоисто-кучевые, Ns - слоисто-дождевые, Cu - кучевые, Cb - кучево-дождевые. Подробнее классификацию облаков см. в Атласе облаков (PDF).
T - Температура воздуха - температура, измеренная на высоте 2 м над землей.
Td - Температура точки росы - температура, при понижении до которой содержащийся в воздухе водяной пар достигнет насыщения.
f - Относительная влажность воздуха - влажноcть воздуха, измеренная на высоте 2 м над землей.
Te - Эффективная температура - температура, которую ощущает одетый по сезону человек в тени. Характеристика душности погоды. При расчете учитывается влияние влажности воздуха и скорости ветра на теплоощущения человека.
Tes - Эффективная температура на солнце - температура, которую ощущает человек, с поправкой на солнечный нагрев. Характеристика знойности погоды. Зависит от высоты солнца над горизонтом, облачности и скорости ветра. Ночью, в пасмурную погоду, а также при ветре 12 м/с и более поправка равна нулю.
P - Атмосферное давление - приведенное к уровню моря атмосферное давление.
Po - Атмосферное давление - измеренное на уровне метеостанции атмосферное давление.
Tmin - Минимальная температура - минимум температуры воздуха на высоте 2 м над землей.
Tmax - Максимальная температура - максимум температуры воздуха на высоте 2 м над землей.
R - Количество осадков - Количество выпавших осадков за период времени, мм. При наведении курсора мыши на число - период времени, за который выпало указанное количество осадков.
R24 - Количество осадков - Количество выпавших осадков за 24 часа, мм.
S - Снежный покров - Высота снежного покрова, см. При наведении курсора мыши на число - состояние снежного покрова и степень покрытия местности в баллах.